Regional Weather Roundup
Issued by NWS Burlington, VT

Home | Current Version | Previous Version | Text Only | Print | Product List | Glossary On
Versions: 1 2 3 4 5 6 7 8 9 10 11 12 13 14 15 16 17 18 19 20 21 22 23 24 25 26 27
000
ASUS41 KBTV 260310
RWRBTV
VERMONT REGIONAL WEATHER ROUNDUP
NATIONAL WEATHER SERVICE BURLINGTON VT
1100 PM EDT SAT OCT 25 2014

NOTE: "FAIR" INDICATES FEW OR NO CLOUDS BELOW 12,000 FEET WITH NO
SIGNIFICANT WEATHER AND/OR OBSTRUCTIONS TO VISIBILITY.

* THESE REPORTS ARE NOT UNDER NWS QUALITY CONTROL AND/OR DO NOT
  REPORT WEATHER SUCH AS PRECIPITATION AND FOG.

VTZ001>019-260400-
_____VERMONT_____


CITY           SKY/WX    TMP DP  RH WIND       PRES   REMARKS
BURLINGTON     CLOUDY    52  47  83 S3        29.47F
MONTPELIER     MOCLDY    48  45  89 SW8       29.50S
MORRISVILLE    PTCLDY    51  47  86 W6        29.46F
ST. JOHNSBURY*   N/A     48  47  96 MISG      29.45F
LYNDONVILLE*   MOCLDY    47  45  91 S3        29.47S FOG
MIDDLEBURY*    MOCLDY    50  50 100 CALM      29.49F
RUTLAND*       CLOUDY    54  45  71 W6        29.51S
SPRINGFIELD    FOG       46  46 100 CALM      29.50F VSB 3/4
HIGHGATE*      CLOUDY    51  49  93 S3        29.44F
NEWPORT*       CLOUDY    47  46  95 S6        29.44F
BENNINGTON     MOCLDY    52  47  83 SW5       29.55R
SUTTON*          N/A     46 N/A N/A MISG        N/A

_____LAKE CHAMPLAIN_____


CITY           SKY/WX    TMP DP  RH WIND       PRES   REMARKS
COLCHESTER RF*   N/A     55  48  76 W10         N/A
DIAMOND ISL*     N/A     52  48  87 SW2         N/A

$$

NYZ007-026>031-035-052-083-260400-
_____NORTHERN NEW YORK_____


CITY           SKY/WX    TMP DP  RH WIND       PRES   REMARKS
PLATTSBURGH    PTCLDY    47  46  97 S3        29.45F FOG
SARANAC LAKE   CLOUDY    47  44  90 SW10      29.47F
MASSENA        LGT RAIN  49  43  80 NW8       29.49R
OGDENSBURG*    MOCLDY    52  46  82 W7        29.48S
POTSDAM*       CLOUDY    52  50  93 W13       29.47F
WATERTOWN      CLOUDY    56  40  55 W13       29.53F
FT DRUM        PTCLDY    53  46  79 W12       29.52F
ALBANY         PTCLDY    53  47  79 W8        29.56S
GLENS FALLS    CLEAR     49  46  90 SW8       29.50F FOG

$$
NHZ002-005-011-260400-
_____NEW HAMPSHIRE_____


CITY           SKY/WX    TMP DP  RH WIND       PRES   REMARKS
LEBANON        PTCLDY    50  45  83 S12       29.48S
KEENE          PTCLDY    48  39  71 S6        29.53S
MT WASHINGTON  SNOW      32  32 100 W38G48      N/A  VSB 0
PLYMOUTH       MOCLDY    48  48 100 CALM      29.46F FOG
WHITEFIELD     CLOUDY    48  46  93 E3        29.46F

$$

_____REGIONAL QUEBEC LOCATIONS_____


CITY           SKY/WX    TMP DP  RH WIND       PRES   REMARKS
MONTREAL       LGT RAIN  52  48  87 W13G21    29.41F
QUEBEC CITY    LGT RAIN  41  39  93 E6G17     29.42F
SHERBROOKE     LGT RAIN  48  46  93 VRB2      29.41F

_____REGIONAL ONTARIO LOCATIONS_____


CITY           SKY/WX    TMP DP  RH WIND       PRES   REMARKS
OTTAWA         LGT RAIN  46  46 100 W8        29.48F

______KEY______
VSB  - VISIBILITY IN MILES
WCI  - WIND CHILL INDEX
HX   - HEAT INDEX
$$
NNNN



USA.gov is the U.S. government's official web portal to all federal, state and local government web resources and services.